| time (UTC) | temp C | wind direction | speed KPH | gust KPH | rain 1hr cm | rain 24hr cm | rain mn cm | humidity % | barometer mb |
| 20260506191543 | 15 | 190 | 3.2 | 16.1 | 0.05 | 0.18 | 0.18 | 94 | 1005.0 |
| 20260506191532 | 15 | 190 | 4.8 | 16.1 | 0.05 | 0.18 | 0.18 | 94 | 1005.7 |
| 20260506190038 | 14 | 185 | 3.2 | 12.9 | 0.08 | 0.18 | 0.18 | 94 | 1005.1 |
| 20260506190031 | 14 | 161 | 3.2 | 16.1 | 0.08 | 0.18 | 0.18 | 93 | 1005.7 |
| 20260506184548 | 14 | 159 | 3.2 | 16.1 | 0.10 | 0.18 | 0.18 | 93 | 1005.2 |
| 20260506184533 | 15 | 176 | 4.8 | 22.5 | 0.10 | 0.18 | 0.18 | 93 | 1005.8 |
| 20260506183050 | 14 | 217 | 3.2 | 16.1 | 0.10 | 0.15 | 0.15 | 93 | 1005.4 |
| 20260506183030 | 14 | 217 | 4.8 | 19.3 | 0.10 | 0.15 | 0.15 | 93 | 1006.1 |
| 20260506181600 | 14 | 164 | 8.0 | 22.5 | 0.13 | 0.13 | 0.13 | 93 | 1005.6 |
| 20260506181532 | 14 | 161 | 6.4 | 24.1 | 0.13 | 0.13 | 0.13 | 92 | 1006.3 |
| 20260506180044 | 15 | 141 | 3.2 | 16.1 | 0.10 | 0.10 | 0.10 | 91 | 1006.1 |
| 20260506180035 | 15 | 141 | 3.2 | 14.5 | 0.10 | 0.10 | 0.10 | 92 | 1005.5 |
| 20260506174531 | 15 | 123 | 8.0 | 24.1 | 0.08 | 0.08 | 0.08 | 90 | 1005.5 |
| 20260506173035 | 15 | 137 | 4.8 | 20.9 | 0.05 | 0.05 | 0.05 | 87 | 1006.3 |
| 20260506171533 | 16 | 0 | 0.0 | 0.0 | 0.00 | 0.00 | 0.00 | 86 | 1006.7 |
| 20260506171528 | 16 | 180 | 0.0 | 3.2 | 0.00 | 0.00 | 0.00 | 86 | 1006.1 |
| 20260506170047 | 16 | 175 | 0.0 | 0.0 | 0.00 | 0.00 | 0.00 | 82 | 1006.6 |
| 20260506170032 | 16 | 0 | 0.0 | 0.0 | 0.00 | 0.00 | 0.00 | 81 | 1007.2 |
| 20260506164546 | 17 | 158 | 0.0 | 0.0 | 0.00 | 0.00 | 0.00 | 78 | 1006.7 |
| 20260506164532 | 17 | 0 | 0.0 | 0.0 | 0.00 | 0.00 | 0.00 | 78 | 1007.3 |
| 20260506163052 | 17 | 0 | 0.0 | 0.0 | 0.00 | 0.00 | 0.00 | 76 | 1007.2 |
| 20260506163044 | 17 | 156 | 0.0 | 0.0 | 0.00 | 0.00 | 0.00 | 76 | 1006.5 |
| 20260506161546 | 18 | 161 | 0.0 | 0.0 | 0.00 | 0.00 | 0.00 | 74 | 1006.4 |
| 20260506161533 | 18 | 0 | 0.0 | 0.0 | 0.00 | 0.00 | 0.00 | 74 | 1007.1 |
| 20260506160051 | 18 | 182 | 0.0 | 0.0 | 0.00 | 0.00 | 0.00 | 73 | 1006.6 |
| 20260506160032 | 18 | 0 | 0.0 | 0.0 | 0.00 | 0.00 | 0.00 | 73 | 1007.2 |
| 20260506154542 | 18 | 184 | 0.0 | 0.0 | 0.00 | 0.00 | 0.00 | 73 | 1006.9 |
| 20260506154539 | 18 | 0 | 0.0 | 0.0 | 0.00 | 0.00 | 0.00 | 72 | 1007.5 |
| 20260506153104 | 18 | 182 | 0.0 | 0.0 | 0.00 | 0.00 | 0.00 | 74 | 1006.9 |
| 20260506153030 | 18 | 0 | 0.0 | 0.0 | 0.00 | 0.00 | 0.00 | 73 | 1007.5 |
| 20260506151552 | 18 | 160 | 0.0 | 0.0 | 0.00 | 0.00 | 0.00 | 73 | 1006.9 |
| 20260506151530 | 18 | 0 | 0.0 | 0.0 | 0.00 | 0.00 | 0.00 | 73 | 1007.5 |
| 20260506150135 | 18 | 186 | 0.0 | 0.0 | 0.00 | 0.00 | 0.00 | 74 | 1006.8 |
| 20260506150030 | 18 | 0 | 0.0 | 0.0 | 0.00 | 0.00 | 0.00 | 73 | 1007.4 |
| 20260506144534 | 18 | 142 | 0.0 | 0.0 | 0.00 | 0.00 | 0.00 | 74 | 1006.9 |
| 20260506144532 | 18 | 0 | 0.0 | 0.0 | 0.00 | 0.00 | 0.00 | 73 | 1007.5 |
| 20260506143043 | 18 | 0 | 0.0 | 0.0 | 0.00 | 0.00 | 0.00 | 73 | 1007.7 |
| 20260506143034 | 18 | 190 | 0.0 | 0.0 | 0.00 | 0.00 | 0.00 | 74 | 1007.1 |
| 20260506141536 | 18 | 0 | 0.0 | 0.0 | 0.00 | 0.00 | 0.00 | 74 | 1007.7 |
| 20260506141532 | 18 | 142 | 0.0 | 0.0 | 0.00 | 0.00 | 0.00 | 75 | 1007.1 |
| 20260506140052 | 18 | 143 | 0.0 | 0.0 | 0.00 | 0.00 | 0.00 | 76 | 1007.0 |
| 20260506140032 | 18 | 0 | 0.0 | 0.0 | 0.00 | 0.00 | 0.00 | 75 | 1007.7 |
| 20260506134551 | 17 | 163 | 0.0 | 0.0 | 0.00 | 0.00 | 0.00 | 77 | 1007.2 |
| 20260506134530 | 17 | 0 | 0.0 | 0.0 | 0.00 | 0.00 | 0.00 | 76 | 1007.9 |
| 20260506133049 | 17 | 198 | 0.0 | 0.0 | 0.00 | 0.00 | 0.00 | 80 | 1006.9 |
| 20260506133032 | 17 | 0 | 0.0 | 0.0 | 0.00 | 0.00 | 0.00 | 79 | 1007.5 |
| 20260506131552 | 17 | 148 | 0.0 | 0.0 | 0.00 | 0.00 | 0.00 | 80 | 1007.1 |
| 20260506131534 | 17 | 0 | 0.0 | 0.0 | 0.00 | 0.00 | 0.00 | 79 | 1007.8 |
| 20260506130034 | 16 | 0 | 0.0 | 0.0 | 0.00 | 0.00 | 0.00 | 82 | 1007.8 |
| 20260506124542 | 16 | 167 | 0.0 | 0.0 | 0.00 | 0.00 | 0.00 | 83 | 1007.5 |
| 20260506124534 | 16 | 0 | 0.0 | 0.0 | 0.00 | 0.00 | 0.00 | 82 | 1008.1 |
| 20260506123041 | 15 | 196 | 0.0 | 0.0 | 0.00 | 0.00 | 0.00 | 84 | 1007.8 |
| 20260506123035 | 15 | 0 | 0.0 | 0.0 | 0.00 | 0.00 | 0.00 | 83 | 1008.3 |
| 20260506121540 | 15 | 142 | 0.0 | 0.0 | 0.00 | 0.00 | 0.00 | 86 | 1007.9 |
| 20260506121538 | 15 | 0 | 0.0 | 0.0 | 0.00 | 0.00 | 0.00 | 85 | 1008.4 |
| 20260506120032 | 15 | 0 | 0.0 | 0.0 | 0.00 | 0.00 | 0.00 | 86 | 1008.3 |
| 20260506120021 | 15 | 137 | 0.0 | 0.0 | 0.00 | 0.00 | 0.00 | 87 | 1007.7 |
| 20260506114538 | 14 | 0 | 0.0 | 0.0 | 0.00 | 0.00 | 0.00 | 87 | 1008.3 |
| 20260506114522 | 14 | 132 | 0.0 | 0.0 | 0.00 | 0.00 | 0.00 | 88 | 1007.8 |
| 20260506113032 | 13 | 0 | 0.0 | 0.0 | 0.00 | 0.00 | 0.00 | 88 | 1008.5 |
| 20260506111538 | 13 | 0 | 0.0 | 0.0 | 0.00 | 0.00 | 0.00 | 89 | 1008.4 |
| 20260506111517 | 13 | 86 | 0.0 | 0.0 | 0.00 | 0.00 | 0.00 | 89 | 1007.9 |
| 20260506110032 | 13 | 0 | 0.0 | 0.0 | 0.00 | 0.00 | 0.00 | 89 | 1008.8 |
| 20260506110014 | 13 | 144 | 0.0 | 0.0 | 0.00 | 0.00 | 0.00 | 90 | 1008.2 |
| 20260506104533 | 13 | 0 | 0.0 | 0.0 | 0.00 | 0.00 | 0.00 | 90 | 1008.5 |
| 20260506104511 | 13 | 136 | 0.0 | 0.0 | 0.00 | 0.00 | 0.00 | 91 | 1008.0 |
| 20260506103030 | 12 | 0 | 0.0 | 6.4 | 0.00 | 0.00 | 0.00 | 91 | 1008.7 |
| 20260506103012 | 12 | 123 | 0.0 | 4.8 | 0.00 | 0.00 | 0.00 | 91 | 1008.2 |
| 20260506101533 | 12 | 164 | 1.6 | 6.4 | 0.00 | 0.00 | 0.00 | 90 | 1008.4 |
| 20260506101509 | 12 | 164 | 1.6 | 4.8 | 0.00 | 0.00 | 0.00 | 91 | 1007.9 |
| 20260506100031 | 12 | 166 | 4.8 | 11.3 | 0.00 | 0.00 | 0.00 | 90 | 1008.3 |
| 20260506100009 | 12 | 166 | 4.8 | 11.3 | 0.00 | 0.00 | 0.00 | 91 | 1007.8 |
| 20260506094535 | 12 | 178 | 1.6 | 6.4 | 0.00 | 0.00 | 0.00 | 90 | 1008.3 |
| 20260506094504 | 12 | 177 | 1.6 | 6.4 | 0.00 | 0.00 | 0.00 | 91 | 1007.8 |
| 20260506093032 | 12 | 156 | 4.8 | 11.3 | 0.00 | 0.00 | 0.00 | 89 | 1008.3 |
| 20260506093001 | 12 | 156 | 4.8 | 11.3 | 0.00 | 0.00 | 0.00 | 89 | 1007.7 |
| 20260506091602 | 13 | 136 | 4.8 | 11.3 | 0.00 | 0.00 | 0.00 | 89 | 1007.7 |
| 20260506091530 | 13 | 137 | 4.8 | 9.7 | 0.00 | 0.00 | 0.00 | 89 | 1008.3 |
| 20260506090104 | 13 | 138 | 1.6 | 8.0 | 0.00 | 0.00 | 0.00 | 88 | 1007.8 |
| 20260506090032 | 13 | 138 | 1.6 | 8.0 | 0.00 | 0.00 | 0.00 | 88 | 1008.5 |
| 20260506084603 | 13 | 121 | 4.8 | 12.9 | 0.00 | 0.00 | 0.00 | 88 | 1007.8 |
| 20260506084532 | 13 | 119 | 3.2 | 14.5 | 0.00 | 0.00 | 0.00 | 87 | 1008.4 |
| 20260506083054 | 13 | 140 | 1.6 | 9.7 | 0.00 | 0.00 | 0.00 | 87 | 1007.9 |
| 20260506083033 | 13 | 140 | 3.2 | 9.7 | 0.00 | 0.00 | 0.00 | 87 | 1008.5 |
| 20260506081554 | 13 | 177 | 1.6 | 8.0 | 0.00 | 0.00 | 0.00 | 86 | 1007.9 |
| 20260506081531 | 13 | 177 | 1.6 | 9.7 | 0.00 | 0.00 | 0.00 | 86 | 1008.5 |
| 20260506073049 | 13 | 137 | 3.2 | 12.9 | 0.00 | 0.00 | 0.00 | 85 | 1007.7 |
| 20260506073038 | 13 | 105 | 4.8 | 12.9 | 0.00 | 0.00 | 0.00 | 85 | 1008.2 |
| 20260506071546 | 13 | 152 | 3.2 | 11.3 | 0.00 | 0.00 | 0.00 | 84 | 1007.9 |
| 20260506071532 | 13 | 167 | 3.2 | 12.9 | 0.00 | 0.00 | 0.00 | 84 | 1008.4 |
| 20260506061543 | 15 | 128 | 4.8 | 12.9 | 0.00 | 0.00 | 0.00 | 81 | 1007.5 |
| 20260506061536 | 15 | 126 | 4.8 | 16.1 | 0.00 | 0.00 | 0.00 | 80 | 1008.1 |
| 20260506044539 | 16 | 162 | 3.2 | 14.5 | 0.00 | 0.00 | 0.00 | 72 | 1008.7 |
| 20260506044527 | 16 | 162 | 3.2 | 14.5 | 0.00 | 0.00 | 0.00 | 73 | 1008.2 |
| 20260506043032 | 16 | 136 | 1.6 | 17.7 | 0.00 | 0.00 | 0.00 | 72 | 1008.8 |
| 20260506043025 | 16 | 136 | 1.6 | 16.1 | 0.00 | 0.00 | 0.00 | 73 | 1008.2 |
| 20260506041532 | 16 | 201 | 3.2 | 11.3 | 0.00 | 0.00 | 0.00 | 71 | 1008.6 |
| 20260506041524 | 16 | 166 | 3.2 | 11.3 | 0.00 | 0.00 | 0.00 | 71 | 1008.1 |
| 20260506040050 | 16 | 194 | 3.2 | 11.3 | 0.00 | 0.00 | 0.00 | 72 | 1008.7 |
| 20260506040024 | 16 | 173 | 4.8 | 20.9 | 0.00 | 0.00 | 0.00 | 73 | 1008.2 |
| 20260506034534 | 16 | 130 | 3.2 | 11.3 | 0.00 | 0.00 | 0.00 | 72 | 1008.7 |
| 20260506034523 | 16 | 138 | 3.2 | 11.3 | 0.00 | 0.00 | 0.00 | 72 | 1008.0 |
| 20260506033032 | 16 | 139 | 1.6 | 11.3 | 0.00 | 0.00 | 0.00 | 73 | 1008.8 |
| 20260506033020 | 16 | 139 | 1.6 | 11.3 | 0.00 | 0.00 | 0.00 | 73 | 1008.2 |
| 20260506031544 | 16 | 94 | 1.6 | 9.7 | 0.00 | 0.00 | 0.00 | 72 | 1008.7 |
| 20260506031520 | 16 | 96 | 3.2 | 9.7 | 0.00 | 0.00 | 0.00 | 72 | 1008.1 |
| 20260506030040 | 16 | 131 | 1.6 | 6.4 | 0.00 | 0.00 | 0.00 | 72 | 1008.0 |
| 20260506030031 | 16 | 131 | 1.6 | 11.3 | 0.00 | 0.00 | 0.00 | 71 | 1008.7 |
| 20260506024555 | 16 | 131 | 1.6 | 8.0 | 0.00 | 0.00 | 0.00 | 71 | 1008.0 |
| 20260506024530 | 16 | 131 | 1.6 | 9.7 | 0.00 | 0.00 | 0.00 | 71 | 1008.6 |
| 20260506023035 | 16 | 138 | 4.8 | 11.3 | 0.00 | 0.00 | 0.00 | 69 | 1007.9 |
| 20260506021534 | 17 | 135 | 3.2 | 11.3 | 0.00 | 0.00 | 0.00 | 68 | 1007.9 |
| 20260506021530 | 17 | 134 | 1.6 | 11.3 | 0.00 | 0.00 | 0.00 | 67 | 1008.5 |
| 20260506020045 | 17 | 179 | 3.2 | 11.3 | 0.00 | 0.00 | 0.00 | 67 | 1007.9 |
| 20260506020032 | 17 | 123 | 3.2 | 12.9 | 0.00 | 0.00 | 0.00 | 67 | 1008.5 |
| 20260506014549 | 17 | 111 | 1.6 | 9.7 | 0.00 | 0.00 | 0.00 | 68 | 1007.7 |
| 20260506014532 | 17 | 153 | 1.6 | 8.0 | 0.00 | 0.00 | 0.00 | 68 | 1008.4 |
| 20260506013100 | 17 | 187 | 3.2 | 12.9 | 0.00 | 0.00 | 0.00 | 65 | 1007.6 |
| 20260506013032 | 17 | 148 | 3.2 | 12.9 | 0.00 | 0.00 | 0.00 | 65 | 1008.2 |
| 20260506011546 | 17 | 188 | 1.6 | 12.9 | 0.00 | 0.00 | 0.00 | 65 | 1007.4 |
| 20260506011536 | 17 | 188 | 1.6 | 14.5 | 0.00 | 0.00 | 0.00 | 64 | 1008.0 |
| 20260506010038 | 18 | 205 | 4.8 | 16.1 | 0.00 | 0.00 | 0.00 | 62 | 1007.2 |
| 20260506004637 | 17 | 153 | 3.2 | 12.9 | 0.00 | 0.00 | 0.00 | 64 | 1007.0 |
| 20260506004530 | 17 | 198 | 3.2 | 14.5 | 0.00 | 0.00 | 0.00 | 64 | 1007.7 |
| 20260506003039 | 18 | 188 | 1.6 | 16.1 | 0.00 | 0.00 | 0.00 | 63 | 1006.9 |
| 20260506003030 | 18 | 207 | 0.0 | 16.1 | 0.00 | 0.00 | 0.00 | 62 | 1007.5 |
| 20260506001539 | 18 | 214 | 3.2 | 11.3 | 0.00 | 0.00 | 0.00 | 62 | 1006.4 |
| 20260506001532 | 18 | 202 | 3.2 | 12.9 | 0.00 | 0.00 | 0.00 | 61 | 1007.0 |
| 20260506000033 | 19 | 193 | 4.8 | 19.3 | 0.00 | 0.00 | 0.00 | 62 | 1006.2 |
| 20260505234536 | 19 | 196 | 0.0 | 0.0 | 0.00 | 0.00 | 0.00 | 60 | 1006.1 |
| 20260505234534 | 19 | 0 | 0.0 | 0.0 | 0.00 | 0.00 | 0.00 | 60 | 1006.8 |
| 20260505233031 | 20 | 0 | 0.0 | 0.0 | 0.00 | 0.00 | 0.00 | 59 | 1006.7 |
| 20260505231544 | 20 | 0 | 0.0 | 0.0 | 0.00 | 0.00 | 0.00 | 57 | 1006.4 |
| 20260505231535 | 20 | 225 | 0.0 | 0.0 | 0.00 | 0.00 | 0.00 | 57 | 1005.7 |
| 20260505230056 | 20 | 135 | 0.0 | 0.0 | 0.00 | 0.00 | 0.00 | 58 | 1005.7 |
| 20260505230033 | 20 | 0 | 0.0 | 0.0 | 0.00 | 0.00 | 0.00 | 57 | 1006.4 |
| 20260505224547 | 21 | 153 | 6.4 | 25.7 | 0.00 | 0.00 | 0.00 | 56 | 1005.4 |
| 20260505224532 | 21 | 178 | 9.7 | 30.6 | 0.00 | 0.00 | 0.00 | 56 | 1006.0 |
| 20260505223055 | 21 | 80 | 6.4 | 27.4 | 0.00 | 0.00 | 0.00 | 58 | 1005.4 |
| 20260505223029 | 21 | 199 | 4.8 | 27.4 | 0.00 | 0.00 | 0.00 | 57 | 1006.0 |
| 20260505221544 | 21 | 180 | 11.3 | 27.4 | 0.00 | 0.00 | 0.00 | 57 | 1005.4 |
| 20260505221532 | 21 | 186 | 9.7 | 24.1 | 0.00 | 0.00 | 0.00 | 56 | 1006.0 |
| 20260505220042 | 21 | 304 | 8.0 | 22.5 | 0.00 | 0.00 | 0.00 | 56 | 1005.5 |
| 20260505220038 | 21 | 146 | 8.0 | 27.4 | 0.00 | 0.00 | 0.00 | 56 | 1006.1 |
| 20260505214540 | 22 | 176 | 8.0 | 24.1 | 0.00 | 0.00 | 0.00 | 56 | 1005.5 |
| 20260505214536 | 21 | 138 | 8.0 | 27.4 | 0.00 | 0.00 | 0.00 | 55 | 1006.1 |
| 20260505213051 | 22 | 163 | 9.7 | 25.7 | 0.00 | 0.00 | 0.00 | 55 | 1005.2 |
| 20260505213034 | 22 | 134 | 6.4 | 25.7 | 0.00 | 0.00 | 0.00 | 54 | 1005.9 |
| 20260505211537 | 22 | 160 | 6.4 | 22.5 | 0.00 | 0.00 | 0.00 | 54 | 1005.2 |
| 20260505211532 | 22 | 99 | 8.0 | 22.5 | 0.00 | 0.00 | 0.00 | 54 | 1005.9 |
| 20260505210048 | 22 | 154 | 11.3 | 32.2 | 0.00 | 0.00 | 0.00 | 54 | 1005.1 |
| 20260505210032 | 22 | 178 | 11.3 | 37.0 | 0.00 | 0.00 | 0.00 | 53 | 1005.8 |
| 20260505204547 | 23 | 161 | 12.9 | 29.0 | 0.00 | 0.00 | 0.00 | 52 | 1005.0 |
| 20260505204534 | 23 | 162 | 12.9 | 29.0 | 0.00 | 0.00 | 0.00 | 52 | 1005.7 |
| 20260505203052 | 23 | 134 | 12.9 | 30.6 | 0.00 | 0.00 | 0.00 | 51 | 1005.0 |
| 20260505203033 | 23 | 173 | 9.7 | 30.6 | 0.00 | 0.00 | 0.00 | 51 | 1005.6 |
| 20260505201546 | 23 | 145 | 9.7 | 27.4 | 0.00 | 0.00 | 0.00 | 51 | 1005.1 |
| 20260505201533 | 23 | 128 | 8.0 | 29.0 | 0.00 | 0.00 | 0.00 | 50 | 1005.7 |
| 20260505200044 | 23 | 159 | 9.7 | 25.7 | 0.00 | 0.00 | 0.00 | 51 | 1005.4 |
| 20260505200039 | 23 | 129 | 9.7 | 27.4 | 0.00 | 0.00 | 0.00 | 50 | 1006.0 |
| 20260505194550 | 23 | 178 | 11.3 | 29.0 | 0.00 | 0.00 | 0.00 | 51 | 1005.2 |
| 20260505194529 | 23 | 162 | 8.0 | 29.0 | 0.00 | 0.00 | 0.00 | 50 | 1005.9 |
| 20260505193041 | 23 | 178 | 8.0 | 25.7 | 0.00 | 0.00 | 0.00 | 51 | 1005.3 |
| 20260505193029 | 23 | 127 | 9.7 | 25.7 | 0.00 | 0.00 | 0.00 | 51 | 1005.9 |